QPF
0.00 0.00 0.00 0.00 0.00 0.00 0.01 0.02 0.03 0.04 0.03 0.03 0.02 0.02 0.04 0.05 0.05 0.04 0.03 0.03 0.04 0.06 0.08 0.09 0.11 0.10 0.09 0.07 0.05 0.05 0.07 0.06 0.05 0.06 0.07 0.08 0.07 0.06 0.04 0.05 0.04 0.03 0.03
0.00 0.00 0.00 0.00 0.00 0.00 0.00 0.00 0.02 0.04 0.04 0.03 0.02 0.01 0.03 0.05 0.05 0.04 0.03 0.04 0.04 0.05 0.06 0.08 0.10 0.11 0.10 0.08 0.07 0.06 0.06 0.07 0.07 0.07 0.06 0.06 0.07 0.06 0.07 0.06 0.04 0.03 0.04
0.00 0.00 0.00 0.00 0.00 0.00 0.00 0.00 0.01 0.03 0.05 0.04 0.03 0.02 0.02 0.04 0.05 0.04 0.04 0.04 0.04 0.03 0.04 0.07 0.10 0.12 0.13 0.10 0.09 0.08 0.09 0.09 0.08 0.07 0.07 0.07 0.07 0.06 0.06 0.07 0.05 0.05 0.03
0.00 0.00 0.00 0.00 0.00 0.00 0.00 0.00 0.01 0.02 0.04 0.06 0.04 0.03 0.03 0.04 0.05 0.04 0.04 0.03 0.04 0.04 0.04 0.04 0.06 0.07 0.09 0.10 0.10 0.10 0.10 0.10 0.08 0.07 0.06 0.06 0.07 0.05 0.04 0.06 0.05 0.05 0.04
0.00 0.00 0.00 0.00 0.00 0.00 0.00 0.00 0.01 0.02 0.04 0.07 0.05 0.04 0.03 0.02 0.03 0.03 0.03 0.04 0.04 0.05 0.07 0.04 0.02 0.03 0.05 0.09 0.09 0.11 0.11 0.12 0.09 0.08 0.08 0.06 0.06 0.05 0.04 0.05 0.05 0.04 0.04
0.00 0.00 0.00 0.00 0.00 0.00 0.01 0.01 0.01 0.02 0.03 0.05 0.05 0.05 0.04 0.02 0.03 0.04 0.04 0.05 0.05 0.05 0.06 0.05 0.06 0.04 0.03 0.05 0.08 0.10 0.13 0.12 0.10 0.09 0.09 0.07 0.05 0.04 0.04 0.03 0.05 0.04 0.05
0.00 0.00 0.00 0.01 0.01 0.02 0.02 0.01 0.02 0.02 0.02 0.04 0.07 0.06 0.05 0.04 0.03 0.04 0.05 0.07 0.06 0.06 0.05 0.05 0.07 0.07 0.03 0.03 0.04 0.06 0.08 0.09 0.12 0.10 0.10 0.09 0.06 0.03 0.03 0.04 0.04 0.04 0.04
0.00 0.00 0.00 0.02 0.02 0.01 0.01 0.01 0.02 0.02 0.03 0.03 0.07 0.07 0.06 0.04 0.02 0.03 0.04 0.06 0.07 0.08 0.06 0.05 0.08 0.08 0.07 0.07 0.05 0.03 0.04 0.06 0.10 0.12 0.12 0.11 0.08 0.05 0.04 0.05 0.05 0.06 0.05
0.00 0.00 0.00 0.01 0.01 0.01 0.01 0.01 0.01 0.03 0.05 0.04 0.05 0.07 0.07 0.05 0.03 0.03 0.04 0.06 0.07 0.08 0.08 0.08 0.10 0.08 0.06 0.08 0.08 0.04 0.03 0.04 0.08 0.15 0.15 0.14 0.10 0.08 0.06 0.06 0.06 0.06 0.04
0.00 0.00 0.00 0.01 0.01 0.01 0.01 0.01 0.01 0.02 0.05 0.05 0.04 0.04 0.05 0.05 0.05 0.04 0.04 0.06 0.07 0.06 0.07 0.06 0.08 0.09 0.06 0.08 0.07 0.03 0.02 0.02 0.05 0.12 0.17 0.17 0.13 0.10 0.08 0.07 0.07 0.07 0.06
0.00 0.00 0.00 0.01 0.01 0.00 0.01 0.03 0.02 0.02 0.04 0.05 0.04 0.03 0.04 0.04 0.04 0.05 0.04 0.04 0.06 0.06 0.05 0.05 0.07 0.08 0.08 0.07 0.09 0.04 0.02 0.02 0.04 0.09 0.15 0.21 0.18 0.14 0.11 0.09 0.09 0.09 0.07
0.00 0.00 0.00 0.01 0.01 0.01 0.01 0.02 0.03 0.02 0.04 0.05 0.05 0.04 0.03 0.04 0.05 0.06 0.04 0.04 0.05 0.05 0.03 0.03 0.04 0.04 0.05 0.06 0.05 0.04 0.03 0.03 0.03 0.06 0.10 0.16 0.20 0.17 0.13 0.12 0.11 0.10 0.08
0.00 0.00 0.00 0.01 0.01 0.01 0.01 0.02 0.03 0.03 0.03 0.05 0.06 0.04 0.03 0.03 0.04 0.05 0.06 0.03 0.04 0.04 0.04 0.02 0.02 0.03 0.03 0.04 0.05 0.04 0.03 0.03 0.03 0.04 0.07 0.11 0.13 0.13 0.14 0.14 0.15 0.15 0.13
0.00 0.00 0.00 0.00 0.01 0.01 0.01 0.01 0.02 0.03 0.02 0.04 0.05 0.04 0.03 0.02 0.03 0.03 0.04 0.04 0.04 0.04 0.04 0.03 0.03 0.03 0.04 0.03 0.04 0.04 0.05 0.03 0.03 0.03 0.03 0.06 0.11 0.09 0.08 0.08 0.11 0.15 0.17
0.00 0.00 0.00 0.00 0.01 0.01 0.02 0.02 0.02 0.02 0.02 0.03 0.04 0.04 0.03 0.02 0.02 0.01 0.02 0.03 0.04 0.05 0.05 0.04 0.03 0.03 0.04 0.03 0.04 0.05 0.06 0.04 0.03 0.03 0.04 0.04 0.10 0.12 0.10 0.06 0.06 0.08 0.12
0.00 0.01 0.00 0.00 0.01 0.02 0.02 0.01 0.01 0.01 0.02 0.02 0.04 0.05 0.03 0.02 0.01 0.01 0.01 0.01 0.02 0.04 0.05 0.03 0.04 0.04 0.04 0.04 0.06 0.04 0.05 0.06 0.03 0.03 0.05 0.05 0.08 0.10 0.10 0.07 0.06 0.06 0.06
0.00 0.01 0.00 0.00 0.00 0.01 0.01 0.01 0.01 0.01 0.01 0.01 0.02 0.04 0.05 0.02 0.01 0.01 0.01 0.01 0.02 0.02 0.03 0.02 0.03 0.03 0.04 0.05 0.05 0.04 0.03 0.04 0.04 0.04 0.04 0.04 0.06 0.08 0.09 0.08 0.07 0.05 0.04
0.00 0.00 0.00 0.00 0.00 0.00 0.01 0.01 0.01 0.01 0.01 0.01 0.01 0.02 0.05 0.04 0.02 0.01 0.01 0.01 0.01 0.02 0.02 0.02 0.02 0.02 0.02 0.04 0.05 0.05 0.03 0.02 0.03 0.02 0.01 0.02 0.03 0.06 0.08 0.08 0.08 0.07 0.06
0.00 0.00 0.00 0.00 0.01 0.00 0.01 0.01 0.01 0.01 0.00 0.00 0.01 0.02 0.04 0.06 0.03 0.01 0.01 0.01 0.02 0.02 0.02 0.03 0.02 0.01 0.02 0.02 0.03 0.04 0.04 0.02 0.02 0.02 0.02 0.02 0.03 0.04 0.07 0.06 0.05 0.04 0.05
0.00 0.00 0.00 0.00 0.00 0.00 0.01 0.01 0.01 0.01 0.00 0.00 0.00 0.01 0.02 0.04 0.06 0.02 0.01 0.01 0.01 0.01 0.02 0.04 0.04 0.02 0.01 0.02 0.03 0.04 0.04 0.02 0.01 0.02 0.02 0.03 0.04 0.05 0.07 0.08 0.05 0.03 0.03
0.00 0.00 0.00 0.00 0.00 0.00 0.00 0.01 0.00 0.00 0.00 0.00 0.00 0.00 0.01 0.01 0.04 0.05 0.02 0.01 0.01 0.01 0.02 0.03 0.04 0.03 0.02 0.02 0.02 0.03 0.02 0.02 0.02 0.02 0.03 0.02 0.02 0.02 0.03 0.07 0.06 0.03 0.02
0.00 0.00 0.00 0.00 0.00 0.00 0.00 0.00 0.00 0.00 0.00 0.01 0.01 0.00 0.00 0.01 0.01 0.03 0.04 0.02 0.01 0.02 0.02 0.03 0.04 0.03 0.02 0.02 0.02 0.01 0.01 0.02 0.02 0.02 0.03 0.03 0.02 0.03 0.03 0.03 0.05 0.04 0.02
0.00 0.00 0.00 0.00 0.00 0.00 0.00 0.00 0.00 0.00 0.01 0.01 0.01 0.01 0.00 0.00 0.01 0.01 0.02 0.02 0.02 0.01 0.01 0.02 0.02 0.02 0.01 0.01 0.01 0.01 0.02 0.02 0.02 0.02 0.03 0.02 0.02 0.03 0.04 0.05 0.05 0.04 0.04
0.00 0.00 0.00 0.00 0.00 0.00 0.00 0.00 0.00 0.00 0.00 0.00 0.01 0.01 0.01 0.00 0.00 0.00 0.01 0.02 0.02 0.01 0.01 0.01 0.01 0.01 0.01 0.02 0.02 0.02 0.03 0.02 0.02 0.02 0.03 0.03 0.02 0.03 0.03 0.04 0.05 0.05 0.05
0.00 0.00 0.00 0.00 0.00 0.00 0.00 0.00 0.00 0.00 0.00 0.00 0.00 0.00 0.00 0.01 0.00 0.00 0.01 0.01 0.01 0.01 0.01 0.01 0.01 0.01 0.01 0.02 0.02 0.03 0.02 0.03 0.03 0.03 0.04 0.03 0.03 0.03 0.04 0.04 0.04 0.04 0.04
0.00 0.00 0.00 0.00 0.00 0.00 0.00 0.00 0.00 0.00 0.00 0.00 0.01 0.00 0.00 0.00 0.01 0.00 0.01 0.01 0.01 0.01 0.01 0.02 0.02 0.01 0.01 0.01 0.02 0.02 0.03 0.04 0.04 0.03 0.04 0.04 0.03 0.03 0.05 0.05 0.05 0.04 0.05
MSLP
1014.00 1013.86 1013.66 1013.40 1013.10 1012.78 1012.48 1012.22 1012.00 1011.84 1011.73 1011.64 1011.58 1011.54 1011.50 1011.47 1011.47 1011.51 1011.59 1011.71 1011.89 1012.09 1012.32 1012.54 1012.75 1012.94 1013.10 1013.23 1013.35 1013.46 1013.58 1013.72 1013.87 1014.06 1014.26 1014.48 1014.72 1014.95 1015.18 1015.39 1015.57 1015.73 1015.88
1014.09 1013.95 1013.75 1013.50 1013.20 1012.89 1012.58 1012.29 1012.04 1011.83 1011.67 1011.55 1011.46 1011.38 1011.33 1011.30 1011.30 1011.34 1011.43 1011.56 1011.74 1011.95 1012.18 1012.42 1012.66 1012.87 1013.05 1013.20 1013.33 1013.44 1013.56 1013.69 1013.85 1014.04 1014.25 1014.50 1014.76 1015.03 1015.29 1015.53 1015.74 1015.93 1016.10
1014.19 1014.05 1013.86 1013.63 1013.36 1013.07 1012.76 1012.46 1012.18 1011.94 1011.74 1011.57 1011.44 1011.34 1011.26 1011.22 1011.20 1011.23 1011.31 1011.43 1011.60 1011.81 1012.05 1012.30 1012.55 1012.77 1012.97 1013.14 1013.28 1013.40 1013.51 1013.63 1013.77 1013.95 1014.17 1014.42 1014.70 1014.99 1015.29 1015.56 1015.81 1016.03 1016.23
1014.26 1014.12 1013.96 1013.76 1013.52 1013.25 1012.96 1012.66 1012.37 1012.10 1011.87 1011.66 1011.50 1011.37 1011.27 1011.21 1011.18 1011.19 1011.24 1011.35 1011.50 1011.69 1011.92 1012.17 1012.43 1012.67 1012.88 1013.06 1013.20 1013.32 1013.42 1013.53 1013.66 1013.82 1014.03 1014.28 1014.57 1014.88 1015.20 1015.51 1015.80 1016.05 1016.28
1014.25 1014.12 1013.98 1013.81 1013.61 1013.38 1013.11 1012.83 1012.54 1012.26 1012.00 1011.78 1011.60 1011.45 1011.34 1011.26 1011.22 1011.21 1011.25 1011.33 1011.45 1011.62 1011.83 1012.06 1012.31 1012.55 1012.76 1012.95 1013.10 1013.21 1013.31 1013.41 1013.52 1013.67 1013.86 1014.11 1014.40 1014.73 1015.07 1015.41 1015.73 1016.02 1016.28
1014.17 1014.05 1013.93 1013.79 1013.63 1013.42 1013.18 1012.92 1012.64 1012.36 1012.11 1011.88 1011.69 1011.55 1011.44 1011.36 1011.32 1011.30 1011.32 1011.37 1011.46 1011.59 1011.77 1011.97 1012.19 1012.41 1012.62 1012.81 1012.96 1013.07 1013.17 1013.27 1013.37 1013.51 1013.70 1013.95 1014.24 1014.57 1014.93 1015.30 1015.65 1015.96 1016.25
1014.05 1013.94 1013.83 1013.71 1013.57 1013.39 1013.17 1012.93 1012.66 1012.40 1012.15 1011.93 1011.76 1011.63 1011.54 1011.48 1011.45 1011.43 1011.44 1011.47 1011.52 1011.61 1011.73 1011.89 1012.07 1012.27 1012.45 1012.63 1012.78 1012.91 1013.01 1013.12 1013.23 1013.38 1013.57 1013.81 1014.11 1014.45 1014.82 1015.20 1015.56 1015.90 1016.20
1013.92 1013.81 1013.71 1013.60 1013.47 1013.31 1013.10 1012.87 1012.62 1012.37 1012.13 1011.94 1011.79 1011.68 1011.62 1011.59 1011.58 1011.57 1011.57 1011.58 1011.60 1011.65 1011.71 1011.81 1011.94 1012.09 1012.25 1012.41 1012.56 1012.70 1012.82 1012.95 1013.09 1013.25 1013.46 1013.72 1014.02 1014.36 1014.73 1015.11 1015.48 1015.83 1016.14
1013.84 1013.73 1013.62 1013.51 1013.38 1013.21 1013.01 1012.78 1012.54 1012.29 1012.07 1011.90 1011.77 1011.70 1011.67 1011.66 1011.67 1011.69 1011.69 1011.68 1011.67 1011.67 1011.68 1011.72 1011.78 1011.88 1012.01 1012.14 1012.29 1012.44 1012.59 1012.75 1012.93 1013.13 1013.36 1013.63 1013.94 1014.28 1014.65 1015.02 1015.39 1015.73 1016.04
1013.81 1013.69 1013.58 1013.46 1013.32 1013.14 1012.94 1012.70 1012.44 1012.20 1011.98 1011.82 1011.71 1011.65 1011.64 1011.67 1011.70 1011.73 1011.74 1011.72 1011.69 1011.64 1011.60 1011.58 1011.59 1011.63 1011.72 1011.83 1011.97 1012.13 1012.31 1012.51 1012.73 1012.97 1013.23 1013.52 1013.84 1014.18 1014.54 1014.89 1015.24 1015.57 1015.87
1013.81 1013.69 1013.57 1013.44 1013.28 1013.10 1012.87 1012.62 1012.36 1012.10 1011.88 1011.71 1011.60 1011.55 1011.55 1011.59 1011.64 1011.68 1011.69 1011.68 1011.63 1011.55 1011.48 1011.41 1011.36 1011.36 1011.40 1011.48 1011.61 1011.78 1011.99 1012.22 1012.48 1012.76 1013.06 1013.38 1013.70 1014.04 1014.38 1014.71 1015.03 1015.33 1015.62
1013.78 1013.66 1013.55 1013.41 1013.24 1013.05 1012.81 1012.55 1012.28 1012.01 1011.77 1011.59 1011.46 1011.40 1011.40 1011.43 1011.49 1011.53 1011.56 1011.54 1011.49 1011.41 1011.31 1011.21 1011.12 1011.08 1011.08 1011.14 1011.25 1011.42 1011.64 1011.90 1012.20 1012.51 1012.84 1013.18 1013.51 1013.84 1014.16 1014.47 1014.76 1015.03 1015.30
1013.66 1013.56 1013.45 1013.32 1013.16 1012.96 1012.73 1012.46 1012.18 1011.91 1011.66 1011.45 1011.31 1011.22 1011.20 1011.22 1011.27 1011.32 1011.35 1011.35 1011.31 1011.23 1011.13 1011.02 1010.91 1010.84 1010.81 1010.84 1010.93 1011.09 1011.31 1011.59 1011.91 1012.25 1012.60 1012.96 1013.30 1013.63 1013.93 1014.21 1014.47 1014.71 1014.95
1013.43 1013.34 1013.24 1013.12 1012.97 1012.80 1012.58 1012.33 1012.07 1011.79 1011.53 1011.31 1011.14 1011.03 1010.98 1010.98 1011.01 1011.06 1011.11 1011.13 1011.11 1011.06 1010.98 1010.87 1010.77 1010.68 1010.63 1010.63 1010.70 1010.85 1011.06 1011.33 1011.66 1012.01 1012.38 1012.75 1013.10 1013.42 1013.71 1013.97 1014.21 1014.42 1014.62
1013.06 1012.98 1012.90 1012.80 1012.68 1012.53 1012.36 1012.14 1011.91 1011.65 1011.41 1011.18 1010.99 1010.86 1010.78 1010.76 1010.78 1010.82 1010.88 1010.93 1010.95 1010.94 1010.89 1010.81 1010.72 1010.64 1010.58 1010.56 1010.61 1010.73 1010.92 1011.18 1011.50 1011.86 1012.23 1012.61 1012.96 1013.28 1013.57 1013.82 1014.03 1014.21 1014.39
1012.60 1012.52 1012.44 1012.37 1012.28 1012.17 1012.05 1011.89 1011.70 1011.49 1011.27 1011.06 1010.87 1010.72 1010.62 1010.58 1010.59 1010.63 1010.70 1010.78 1010.84 1010.88 1010.88 1010.84 1010.79 1010.72 1010.66 1010.64 1010.66 1010.75 1010.92 1011.16 1011.46 1011.80 1012.18 1012.55 1012.91 1013.24 1013.52 1013.76 1013.96 1014.13 1014.28
1012.12 1012.02 1011.93 1011.86 1011.79 1011.73 1011.65 1011.56 1011.43 1011.28 1011.11 1010.93 1010.76 1010.62 1010.51 1010.46 1010.46 1010.50 1010.59 1010.69 1010.79 1010.88 1010.93 1010.95 1010.93 1010.90 1010.86 1010.83 1010.85 1010.92 1011.05 1011.26 1011.54 1011.86 1012.22 1012.59 1012.94 1013.27 1013.56 1013.81 1014.00 1014.16 1014.29
1011.68 1011.52 1011.40 1011.32 1011.26 1011.22 1011.19 1011.16 1011.10 1011.01 1010.90 1010.77 1010.63 1010.51 1010.41 1010.36 1010.36 1010.41 1010.51 1010.64 1010.78 1010.91 1011.01 1011.08 1011.11 1011.11 1011.10 1011.09 1011.10 1011.16 1011.27 1011.45 1011.69 1011.99 1012.33 1012.68 1013.03 1013.36 1013.65 1013.90 1014.10 1014.26 1014.38
1011.32 1011.09 1010.91 1010.78 1010.71 1010.67 1010.66 1010.67 1010.66 1010.64 1010.59 1010.52 1010.43 1010.34 1010.27 1010.24 1010.25 1010.31 1010.42 1010.57 1010.74 1010.91 1011.06 1011.17 1011.25 1011.30 1011.32 1011.33 1011.36 1011.41 1011.51 1011.67 1011.88 1012.14 1012.45 1012.78 1013.11 1013.43 1013.72 1013.98 1014.19 1014.36 1014.49
1011.05 1010.72 1010.46 1010.26 1010.13 1010.07 1010.06 1010.08 1010.11 1010.13 1010.14 1010.13 1010.09 1010.06 1010.03 1010.02 1010.06 1010.14 1010.27 1010.43 1010.63 1010.82 1011.01 1011.17 1011.29 1011.38 1011.44 1011.49 1011.54 1011.60 1011.70 1011.84 1012.03 1012.26 1012.53 1012.82 1013.13 1013.43 1013.72 1013.98 1014.20 1014.39 1014.53
1010.85 1010.41 1010.04 1009.74 1009.54 1009.41 1009.36 1009.37 1009.41 1009.46 1009.51 1009.55 1009.58 1009.60 1009.62 1009.66 1009.74 1009.85 1010.00 1010.19 1010.40 1010.62 1010.83 1011.02 1011.19 1011.32 1011.42 1011.51 1011.59 1011.68 1011.78 1011.92 1012.09 1012.29 1012.53 1012.79 1013.06 1013.33 1013.61 1013.86 1014.10 1014.31 1014.48
1010.67 1010.12 1009.63 1009.23 1008.92 1008.71 1008.59 1008.55 1008.57 1008.62 1008.69 1008.77 1008.86 1008.94 1009.03 1009.13 1009.26 1009.42 1009.60 1009.81 1010.04 1010.28 1010.51 1010.73 1010.92 1011.09 1011.24 1011.37 1011.49 1011.62 1011.75 1011.89 1012.05 1012.24 1012.44 1012.66 1012.90 1013.14 1013.39 1013.64 1013.88 1014.11 1014.31
1010.48 1009.82 1009.22 1008.71 1008.29 1007.98 1007.77 1007.66 1007.62 1007.65 1007.72 1007.83 1007.96 1008.10 1008.26 1008.44 1008.64 1008.85 1009.08 1009.33 1009.58 1009.83 1010.08 1010.31 1010.53 1010.73 1010.92 1011.09 1011.26 1011.42 1011.58 1011.75 1011.93 1012.10 1012.29 1012.48 1012.69 1012.90 1013.12 1013.36 1013.60 1013.83 1014.06
1010.24 1009.50 1008.82 1008.20 1007.69 1007.27 1006.95 1006.75 1006.64 1006.61 1006.66 1006.78 1006.94 1007.14 1007.37 1007.63 1007.90 1008.19 1008.47 1008.76 1009.04 1009.31 1009.57 1009.81 1010.04 1010.27 1010.49 1010.70 1010.91 1011.12 1011.33 1011.54 1011.74 1011.93 1012.11 1012.29 1012.47 1012.66 1012.86 1013.08 1013.30 1013.54 1013.79
1009.96 1009.18 1008.44 1007.76 1007.15 1006.63 1006.21 1005.90 1005.70 1005.60 1005.61 1005.71 1005.89 1006.13 1006.42 1006.75 1007.10 1007.46 1007.81 1008.15 1008.46 1008.76 1009.03 1009.28 1009.52 1009.76 1010.00 1010.25 1010.51 1010.77 1011.03 1011.29 1011.53 1011.75 1011.95 1012.14 1012.31 1012.49 1012.67 1012.86 1013.08 1013.31 1013.54
1009.69 1008.90 1008.13 1007.40 1006.72 1006.11 1005.60 1005.18 1004.88 1004.70 1004.64 1004.70 1004.87 1005.13 1005.46 1005.86 1006.28 1006.71 1007.13 1007.52 1007.87 1008.19 1008.47 1008.74 1008.99 1009.24 1009.50 1009.78 1010.08 1010.39 1010.71 1011.02 1011.32 1011.59 1011.83 1012.04 1012.23 1012.40 1012.58 1012.75 1012.95 1013.15 1013.37
Thickness
5719 5718 5717 5714 5714 5713 5714 5713 5715 5716 5715 5717 5718 5720 5723 5724 5726 5728 5729 5728 5730 5733 5736 5739 5741 5742 5744 5745 5746 5747 5748 5749 5749 5750 5751 5752 5752 5753 5754 5754 5755 5755 5756
5715 5713 5713 5711 5710 5709 5709 5709 5711 5710 5712 5713 5714 5717 5718 5721 5723 5725 5727 5727 5728 5730 5733 5736 5738 5740 5742 5743 5744 5745 5746 5747 5748 5748 5749 5750 5750 5751 5752 5753 5753 5753 5754
5711 5710 5709 5708 5707 5705 5705 5706 5708 5707 5708 5710 5711 5713 5716 5717 5719 5723 5724 5726 5728 5728 5730 5733 5735 5737 5739 5741 5743 5743 5744 5745 5746 5747 5748 5748 5749 5750 5750 5751 5752 5752 5752
5708 5706 5705 5704 5702 5702 5702 5702 5702 5703 5705 5706 5708 5710 5713 5714 5716 5719 5721 5724 5726 5729 5730 5730 5732 5734 5736 5739 5741 5742 5742 5743 5744 5745 5746 5747 5747 5748 5749 5750 5750 5750 5750
5705 5704 5701 5700 5700 5699 5699 5699 5699 5700 5700 5700 5703 5705 5709 5711 5713 5716 5720 5722 5724 5725 5728 5728 5729 5731 5733 5736 5738 5739 5740 5741 5743 5744 5745 5745 5746 5747 5747 5748 5748 5748 5748
5702 5701 5699 5698 5696 5696 5694 5695 5694 5695 5695 5696 5700 5702 5704 5707 5710 5713 5716 5718 5720 5723 5725 5727 5728 5729 5731 5733 5735 5737 5738 5739 5741 5742 5743 5744 5744 5745 5746 5746 5747 5747 5747
5700 5698 5697 5695 5692 5692 5690 5692 5691 5692 5692 5695 5694 5695 5699 5704 5706 5708 5711 5714 5717 5718 5720 5724 5727 5728 5730 5730 5732 5734 5735 5738 5739 5740 5741 5742 5743 5744 5744 5745 5745 5745 5745
5699 5697 5695 5693 5691 5688 5688 5688 5687 5687 5689 5691 5689 5689 5690 5694 5698 5704 5706 5709 5713 5714 5716 5720 5723 5725 5728 5730 5731 5731 5733 5735 5737 5738 5739 5740 5741 5742 5742 5743 5743 5743 5743
5697 5694 5693 5692 5690 5689 5687 5685 5685 5683 5684 5687 5689 5686 5685 5687 5692 5699 5702 5705 5706 5708 5712 5715 5719 5722 5725 5727 5729 5728 5730 5732 5734 5735 5737 5738 5739 5740 5740 5741 5741 5742 5741
5696 5693 5691 5690 5689 5687 5685 5685 5684 5683 5681 5683 5685 5686 5687 5688 5687 5690 5695 5700 5702 5704 5707 5711 5715 5718 5720 5723 5724 5726 5727 5729 5731 5732 5734 5735 5736 5737 5738 5739 5739 5740 5740
5696 5693 5690 5689 5687 5686 5684 5682 5681 5681 5681 5681 5682 5683 5684 5685 5689 5688 5688 5692 5696 5700 5702 5705 5709 5712 5715 5718 5720 5722 5723 5725 5727 5729 5731 5732 5734 5735 5736 5737 5737 5737 5737
5697 5694 5690 5688 5687 5685 5684 5682 5681 5680 5680 5680 5680 5681 5681 5682 5684 5686 5686 5688 5690 5694 5698 5701 5704 5707 5710 5713 5715 5717 5719 5721 5723 5726 5727 5729 5731 5732 5733 5734 5735 5735 5735
5697 5694 5691 5688 5686 5684 5683 5681 5680 5680 5680 5678 5679 5680 5681 5682 5683 5684 5685 5687 5687 5690 5693 5697 5700 5703 5706 5709 5711 5712 5714 5717 5719 5721 5723 5726 5727 5729 5730 5731 5732 5732 5733
5697 5694 5691 5688 5686 5684 5682 5681 5681 5680 5680 5679 5678 5678 5678 5680 5682 5683 5683 5683 5683 5686 5689 5692 5697 5700 5702 5705 5706 5708 5712 5712 5715 5717 5719 5721 5723 5725 5726 5727 5728 5729 5730
5696 5693 5691 5689 5687 5684 5682 5681 5680 5679 5678 5678 5677 5677 5677 5678 5679 5681 5682 5682 5680 5680 5683 5688 5691 5695 5698 5700 5701 5705 5708 5708 5710 5712 5715 5717 5719 5721 5722 5723 5724 5725 5726
5695 5693 5692 5690 5688 5685 5683 5680 5679 5677 5677 5676 5674 5674 5674 5677 5677 5678 5679 5681 5681 5680 5681 5685 5687 5691 5693 5697 5697 5700 5703 5704 5706 5708 5710 5712 5715 5717 5718 5719 5720 5721 5722
5695 5693 5691 5690 5688 5686 5684 5680 5679 5677 5676 5676 5676 5675 5674 5674 5675 5676 5677 5678 5679 5679 5678 5681 5684 5687 5689 5691 5694 5696 5699 5701 5704 5704 5705 5707 5709 5711 5713 5714 5715 5716 5717
5694 5693 5692 5689 5687 5685 5683 5681 5678 5676 5676 5675 5675 5674 5674 5674 5673 5675 5675 5676 5676 5677 5677 5676 5679 5682 5684 5686 5688 5691 5694 5697 5699 5699 5700 5702 5704 5706 5707 5709 5710 5711 5712
5694 5692 5691 5689 5686 5684 5683 5681 5679 5677 5676 5675 5674 5674 5674 5674 5673 5674 5673 5674 5674 5675 5674 5674 5675 5675 5678 5682 5683 5685 5689 5691 5694 5695 5695 5697 5698 5700 5701 5703 5704 5706 5707
5691 5690 5689 5687 5686 5684 5682 5680 5678 5677 5676 5676 5675 5673 5673 5673 5672 5672 5672 5672 5672 5671 5671 5671 5671 5672 5673 5676 5678 5679 5682 5685 5687 5690 5690 5692 5693 5694 5695 5697 5698 5699 5701
5687 5687 5686 5685 5683 5681 5681 5679 5677 5676 5675 5675 5674 5673 5672 5670 5669 5669 5670 5671 5670 5669 5668 5668 5668 5668 5669 5670 5672 5674 5676 5678 5681 5683 5685 5687 5689 5691 5691 5691 5692 5693 5694
5683 5682 5681 5681 5680 5679 5676 5672 5671 5673 5674 5673 5673 5672 5672 5669 5666 5664 5664 5664 5664 5666 5666 5665 5665 5666 5667 5668 5668 5669 5670 5672 5673 5676 5678 5680 5683 5685 5687 5687 5686 5687 5687
5677 5676 5676 5676 5676 5676 5671 5669 5666 5668 5671 5672 5672 5671 5670 5670 5666 5666 5663 5660 5659 5659 5659 5663 5663 5664 5664 5665 5664 5664 5665 5666 5667 5669 5671 5673 5676 5678 5679 5679 5678 5679 5680
5672 5671 5671 5671 5671 5671 5667 5665 5664 5665 5668 5669 5669 5669 5668 5668 5666 5665 5664 5662 5661 5659 5658 5658 5660 5661 5660 5660 5661 5661 5661 5660 5662 5662 5664 5665 5669 5671 5672 5672 5670 5672 5673
5665 5665 5665 5665 5665 5666 5663 5660 5658 5662 5663 5665 5665 5665 5665 5665 5661 5658 5659 5659 5657 5656 5653 5652 5652 5652 5651 5651 5653 5654 5654 5654 5655 5657 5657 5658 5660 5662 5664 5665 5664 5664 5665
5656 5657 5658 5658 5660 5661 5658 5655 5652 5657 5659 5661 5661 5661 5657 5658 5656 5653 5655 5656 5654 5653 5652 5650 5648 5647 5647 5647 5645 5648 5649 5649 5650 5650 5650 5651 5652 5653 5655 5658 5659 5658 5658